Location: Howard City Library
(37.4684°N, 96.2639°W)
Time: 04:04:49
(UTC+00:00)

STARLINK-1126 - Pass Details

Date: 18 February 2020
Orbit: 545 x 547 km, 53.0° (Epoch: 31 March)

Event Time Altitude Azimuth Distance (km) Brightness Sun altitude
Exits shadow 10:23:48 12° 54° (NE) 1,572 6.6 -33.8°
Drops below altitude 10° 10:24:09 10° 53° (NE) 1,713 6.8 -33.7°
Enters shadow 11:24:18 -62° 233° (SW) 11,861 10.4 -21.9°
